• In Belarus
  • List of Countries
  • For 7 days
  • Water Temperature
  • Satellite Maps
  • Weather Map
  • Weather Widgets
  • user-avatar
    Login

    Hourly Weather Krzywczyce

    Today, 23 February, Saturday

    Time Temperature Precipitation Wind Pressure Humidity
    00:00 -3°C° 0 mm 2 mps 771 mmHg 54%
    01:00 -4°C° 0 mm 2 mps 772 mmHg 52%
    02:00 -4°C° 0 mm 2 mps 771 mmHg 52%
    03:00 -4°C° 0 mm 2 mps 771 mmHg 51%
    04:00 -4°C° 0 mm 2 mps 771 mmHg 51%
    05:00 -4°C° 0 mm 2 mps 771 mmHg 50%
    06:00 -4°C° 0 mm 2 mps 771 mmHg 50%
    07:00 -4°C° 0 mm 2 mps 771 mmHg 50%
    08:00 -3°C° 0 mm 2 mps 771 mmHg 43%
    09:00 -2°C° 0 mm 2 mps 771 mmHg 37%
    10:00 -1°C° 0 mm 2 mps 771 mmHg 31%
    11:00 +1°C° 0 mm 2 mps 771 mmHg 27%
    12:00 +2°C° 0 mm 2 mps 771 mmHg 24%
    13:00 +3°C° 0 mm 2 mps 770 mmHg 21%
    14:00 +3°C° 0 mm 2 mps 770 mmHg 22%
    15:00 +3°C° 0 mm 2 mps 770 mmHg 24%
    16:00 +3°C° 0 mm 2 mps 769 mmHg 25%
    17:00 +2°C° 0 mm 2 mps 769 mmHg 30%
    18:00 -1°C° 0 mm 2 mps 769 mmHg 34%
    19:00 -2°C° 0 mm 2 mps 769 mmHg 39%
    20:00 -2°C° 0 mm 2 mps 769 mmHg 39%
    21:00 0°C° 0 mm 1 mps 769 mmHg 39%
    22:00 0°C° 0 mm 1 mps 768 mmHg 39%
    23:00 0°C° 0 mm 1 mps 768 mmHg 38%

    Tomorrow, 24 February, Sunday

    Time Temperature Precipitation Wind Pressure Humidity
    00:00 0°C° 0 mm 1 mps 768 mmHg 37%
    01:00 0°C° 0 mm 1 mps 768 mmHg 37%
    02:00 +1°C° 0 mm 1 mps 768 mmHg 36%
    03:00 +1°C° 0 mm 1 mps 768 mmHg 36%
    04:00 +2°C° 0 mm 1 mps 767 mmHg 35%
    05:00 +1°C° 0 mm 1 mps 767 mmHg 36%
    06:00 +1°C° 0 mm 1 mps 767 mmHg 36%
    07:00 +1°C° 0 mm 1 mps 767 mmHg 36%
    08:00 +2°C° 0 mm 1 mps 767 mmHg 34%
    09:00 +3°C° 0 mm 2 mps 767 mmHg 31%
    10:00 +4°C° 0 mm 2 mps 767 mmHg 28%
    11:00 +5°C° 0 mm 2 mps 767 mmHg 28%
    12:00 +7°C° 0 mm 2 mps 767 mmHg 28%
    13:00 +8°C° 0 mm 3 mps 767 mmHg 28%
    14:00 +8°C° 0 mm 3 mps 766 mmHg 33%
    15:00 +7°C° 0 mm 2 mps 766 mmHg 39%
    16:00 +7°C° 0 mm 2 mps 766 mmHg 45%
    17:00 +6°C° 0 mm 2 mps 766 mmHg 50%
    18:00 +4°C° 0 mm 2 mps 766 mmHg 56%
    19:00 +3°C° 0 mm 2 mps 766 mmHg 62%
    20:00 +3°C° 0 mm 2 mps 766 mmHg 64%
    21:00 +2°C° 0 mm 2 mps 766 mmHg 66%
    22:00 +2°C° 0 mm 2 mps 766 mmHg 68%
    23:00 +2°C° 0 mm 2 mps 766 mmHg 70%

    Day after tomorrow, 25 February, Monday

    Time Temperature Precipitation Wind Pressure Humidity
    00:00 +2°C° 0 mm 2 mps 766 mmHg 71%
    01:00 +1°C° 0 mm 2 mps 766 mmHg 73%
    02:00 +1°C° 0 mm 2 mps 766 mmHg 74%
    03:00 +1°C° 0 mm 2 mps 766 mmHg 75%
    04:00 0°C° 0 mm 3 mps 766 mmHg 77%
    05:00 -1°C° 0 mm 2 mps 766 mmHg 78%
    06:00 -1°C° 0 mm 2 mps 766 mmHg 79%
    07:00 -1°C° 0 mm 2 mps 766 mmHg 80%
    08:00 +1°C° 0 mm 3 mps 766 mmHg 75%
    09:00 +2°C° 0 mm 3 mps 766 mmHg 71%
    10:00 +4°C° 0 mm 3 mps 766 mmHg 66%
    11:00 +5°C° 0 mm 3 mps 766 mmHg 64%
    12:00 +8°C° 0 mm 3 mps 766 mmHg 63%
    13:00 +9°C° 0 mm 3 mps 766 mmHg 61%
    14:00 +10°C° 0 mm 3 mps 765 mmHg 62%
    15:00 +10°C° 0 mm 3 mps 764 mmHg 62%
    16:00 +10°C° 0 mm 3 mps 764 mmHg 62%
    17:00 +8°C° 0 mm 3 mps 764 mmHg 66%
    18:00 +7°C° 0 mm 3 mps 764 mmHg 70%
    19:00 +5°C° 0 mm 3 mps 764 mmHg 74%
    20:00 +4°C° 0 mm 3 mps 764 mmHg 74%
    21:00 +4°C° 0 mm 3 mps 764 mmHg 74%
    22:00 +4°C° 0 mm 3 mps 764 mmHg 75%
    23:00 +3°C° 0 mm 3 mps 764 mmHg 76%

    26 February, Tuesday

    Time Temperature Precipitation Wind Pressure Humidity
    00:00 +3°C° 0 mm 3 mps 763 mmHg 77%
    01:00 +3°C° 0 mm 3 mps 763 mmHg 79%
    02:00 +2°C° 0 mm 3 mps 763 mmHg 79%
    03:00 +2°C° 0 mm 3 mps 763 mmHg 80%
    04:00 +1°C° 0 mm 4 mps 762 mmHg 80%
    05:00 +1°C° 0 mm 4 mps 762 mmHg 80%
    06:00 0°C° 0 mm 4 mps 762 mmHg 80%
    07:00 0°C° 0 mm 4 mps 762 mmHg 80%
    08:00 +3°C° 0 mm 4 mps 762 mmHg 73%
    09:00 +3°C° 0 mm 5 mps 762 mmHg 66%
    10:00 +5°C° 0 mm 5 mps 762 mmHg 60%
    11:00 +7°C° 0 mm 5 mps 761 mmHg 56%
    12:00 +8°C° 0 mm 5 mps 761 mmHg 51%
    13:00 +10°C° 0 mm 5 mps 761 mmHg 47%
    14:00 +10°C° 0 mm 5 mps 761 mmHg 49%
    15:00 +10°C° 0 mm 5 mps 760 mmHg 50%
    16:00 +11°C° 0 mm 4 mps 760 mmHg 51%
    17:00 +10°C° 0 mm 4 mps 760 mmHg 57%
    18:00 +9°C° 0 mm 3 mps 760 mmHg 63%
    19:00 +7°C° 0 mm 3 mps 760 mmHg 69%
    20:00 +7°C° 0 mm 3 mps 761 mmHg 73%
    21:00 +5°C° 0 mm 3 mps 761 mmHg 77%
    22:00 +6°C° 0 mm 2 mps 761 mmHg 81%
    23:00 +5°C° 0 mm 2 mps 761 mmHg 83%

    27 February, Wednesday

    Time Temperature Precipitation Wind Pressure Humidity
    00:00 +5°C° 0 mm 2 mps 761 mmHg 86%
    01:00 +5°C° 0 mm 2 mps 760 mmHg 89%
    02:00 +3°C° 0 mm 3 mps 760 mmHg 90%
    03:00 +3°C° 0 mm 3 mps 760 mmHg 91%
    04:00 +3°C° 0 mm 3 mps 759 mmHg 92%
    05:00 +3°C° 0 mm 3 mps 759 mmHg 92%
    06:00 +3°C° 0 mm 3 mps 759 mmHg 91%
    07:00 +3°C° 0 mm 4 mps 759 mmHg 91%
    08:00 +4°C° 0 mm 4 mps 758 mmHg 84%
    09:00 +5°C° 0 mm 4 mps 758 mmHg 78%
    10:00 +7°C° 0 mm 5 mps 758 mmHg 71%
    11:00 +8°C° 0 mm 5 mps 757 mmHg 65%
    12:00 +10°C° 0 mm 5 mps 757 mmHg 60%
    13:00 +12°C° 0 mm 5 mps 756 mmHg 54%
    14:00 +12°C° 0 mm 5 mps 756 mmHg 54%
    15:00 +12°C° 0 mm 4 mps 755 mmHg 55%
    16:00 +12°C° 0 mm 4 mps 755 mmHg 56%
    17:00 +11°C° 0 mm 4 mps 754 mmHg 62%
    18:00 +10°C° 0 mm 4 mps 754 mmHg 69%
    19:00 +8°C° 0 mm 3 mps 754 mmHg 75%
    20:00 +8°C° 0 mm 3 mps 754 mmHg 77%
    21:00 +7°C° 0 mm 3 mps 753 mmHg 80%
    22:00 +7°C° 0 mm 3 mps 753 mmHg 82%
    23:00 +5°C° 0 mm 3 mps 753 mmHg 83%

    28 February, Thursday

    Time Temperature Precipitation Wind Pressure Humidity
    00:00 +5°C° 0 mm 3 mps 752 mmHg 84%
    01:00 +5°C° 0 mm 3 mps 752 mmHg 85%
    02:00 +4°C° 0 mm 3 mps 751 mmHg 86%
    03:00 +4°C° 0 mm 4 mps 751 mmHg 87%
    04:00 +4°C° 0 mm 4 mps 751 mmHg 88%
    05:00 +4°C° 0 mm 4 mps 751 mmHg 89%
    06:00 +4°C° 0 mm 4 mps 750 mmHg 91%
    07:00 +3°C° 0 mm 4 mps 750 mmHg 92%
    08:00 +5°C° 0 mm 4 mps 750 mmHg 86%
    09:00 +6°C° 0 mm 4 mps 750 mmHg 79%
    10:00 +7°C° 0 mm 4 mps 750 mmHg 73%
    11:00 +8°C° 0 mm 5 mps 750 mmHg 68%
    12:00 +9°C° 0 mm 5 mps 750 mmHg 63%
    13:00 +12°C° 0 mm 5 mps 750 mmHg 57%
    14:00 +12°C° 0 mm 5 mps 749 mmHg 58%
    15:00 +12°C° 0 mm 4 mps 749 mmHg 58%
    16:00 +12°C° 0 mm 4 mps 749 mmHg 59%
    17:00 +10°C° 0 mm 4 mps 749 mmHg 66%
    18:00 +9°C° 0 mm 3 mps 749 mmHg 73%
    19:00 +7°C° 0 mm 2 mps 750 mmHg 80%
    20:00 +7°C° 0 mm 2 mps 750 mmHg 83%
    21:00 +6°C° 0 mm 2 mps 750 mmHg 87%
    22:00 +6°C° 0 mm 2 mps 750 mmHg 90%
    23:00 +5°C° 0 mm 2 mps 750 mmHg 92%
    Show more